• In Hungary
  • List of Countries
  • For 7 days
  • Water Temperature
  • Satellite Maps
  • Weather Map
  • News
  • Weather Widgets
  • user-avatar
    Login

    Hourly Weather Beloe Ozero

    Today, 19 October, Friday

    Time Temperature Precipitation Wind Pressure Humidity
    00:00 +10°C° 0 mm 2 mps 757 mmHg 69%
    01:00 +10°C° 0 mm 2 mps 757 mmHg 69%
    02:00 +9°C° 0 mm 2 mps 757 mmHg 70%
    03:00 +8°C° 0 mm 2 mps 756 mmHg 78%
    04:00 +8°C° 0 mm 2 mps 756 mmHg 78%
    05:00 +8°C° 0 mm 2 mps 756 mmHg 78%
    06:00 +8°C° 0 mm 2 mps 756 mmHg 78%
    07:00 +9°C° 0 mm 3 mps 756 mmHg 73%
    08:00 +10°C° 0 mm 3 mps 756 mmHg 68%
    09:00 +11°C° 0 mm 3 mps 756 mmHg 63%
    10:00 +13°C° 0 mm 3 mps 756 mmHg 58%
    11:00 +16°C° 0 mm 3 mps 756 mmHg 54%
    12:00 +17°C° 0 mm 3 mps 755 mmHg 49%
    13:00 +18°C° 0 mm 4 mps 755 mmHg 48%
    14:00 +18°C° 0 mm 4 mps 755 mmHg 46%
    15:00 +18°C° 0 mm 4 mps 754 mmHg 45%
    16:00 +17°C° 0 mm 3 mps 754 mmHg 49%
    17:00 +16°C° 0 mm 3 mps 754 mmHg 53%
    18:00 +13°C° 0 mm 3 mps 754 mmHg 57%
    19:00 +13°C° 0 mm 3 mps 754 mmHg 57%
    20:00 +12°C° 0 mm 3 mps 753 mmHg 57%
    21:00 +11°C° 0 mm 3 mps 753 mmHg 58%
    22:00 +11°C° 0 mm 3 mps 753 mmHg 58%
    23:00 +10°C° 0 mm 3 mps 753 mmHg 58%

    Tomorrow, 20 October, Saturday

    Time Temperature Precipitation Wind Pressure Humidity
    00:00 +10°C° 0 mm 3 mps 753 mmHg 58%
    01:00 +10°C° 0 mm 3 mps 753 mmHg 59%
    02:00 +9°C° 0 mm 3 mps 752 mmHg 61%
    03:00 +9°C° 0 mm 3 mps 752 mmHg 62%
    04:00 +9°C° 0 mm 3 mps 752 mmHg 64%
    05:00 +9°C° 0 mm 3 mps 752 mmHg 67%
    06:00 +8°C° 0 mm 3 mps 752 mmHg 69%
    07:00 +10°C° 0 mm 3 mps 752 mmHg 67%
    08:00 +11°C° 0 mm 3 mps 752 mmHg 64%
    09:00 +12°C° 0 mm 3 mps 751 mmHg 62%
    10:00 +13°C° 0 mm 3 mps 751 mmHg 58%
    11:00 +16°C° 0 mm 3 mps 751 mmHg 54%
    12:00 +18°C° 0 mm 3 mps 751 mmHg 51%
    13:00 +18°C° 0 mm 3 mps 751 mmHg 50%
    14:00 +18°C° 0 mm 3 mps 751 mmHg 49%
    15:00 +19°C° 0 mm 2 mps 751 mmHg 49%
    16:00 +17°C° 0 mm 2 mps 751 mmHg 54%
    17:00 +16°C° 0 mm 1 mps 751 mmHg 58%
    18:00 +15°C° 0 mm 1 mps 751 mmHg 63%
    19:00 +14°C° 0 mm 1 mps 751 mmHg 67%
    20:00 +14°C° 0 mm 1 mps 751 mmHg 70%
    21:00 +13°C° 0 mm 2 mps 752 mmHg 73%
    22:00 +12°C° 0 mm 2 mps 751 mmHg 76%
    23:00 +12°C° 0 mm 2 mps 751 mmHg 80%

    Day after tomorrow, 21 October, Sunday

    Time Temperature Precipitation Wind Pressure Humidity
    00:00 +11°C° 0 mm 3 mps 751 mmHg 83%
    01:00 +10°C° 0 mm 3 mps 752 mmHg 85%
    02:00 +10°C° 0 mm 3 mps 752 mmHg 87%
    03:00 +9°C° 0 mm 3 mps 752 mmHg 89%
    04:00 +8°C° 0 mm 4 mps 752 mmHg 88%
    05:00 +8°C° 0 mm 4 mps 752 mmHg 88%
    06:00 +8°C° 0 mm 4 mps 752 mmHg 88%
    07:00 +10°C° 0 mm 4 mps 752 mmHg 84%
    08:00 +9°C° 0 mm 5 mps 752 mmHg 80%
    09:00 +9°C° 0 mm 5 mps 753 mmHg 77%
    10:00 +10°C° 0 mm 5 mps 753 mmHg 75%
    11:00 +10°C° 0 mm 5 mps 753 mmHg 73%
    12:00 +12°C° 0 mm 5 mps 753 mmHg 71%
    13:00 +12°C° 0.1 mm 5 mps 753 mmHg 70%
    14:00 +12°C° 0.1 mm 5 mps 753 mmHg 69%
    15:00 +12°C° 0.1 mm 5 mps 753 mmHg 69%
    16:00 +12°C° 0.2 mm 5 mps 753 mmHg 69%
    17:00 +12°C° 0.2 mm 5 mps 753 mmHg 70%
    18:00 +12°C° 0.2 mm 5 mps 754 mmHg 70%
    19:00 +10°C° 0.5 mm 5 mps 754 mmHg 71%
    20:00 +10°C° 0.5 mm 5 mps 754 mmHg 71%
    21:00 +10°C° 0.5 mm 5 mps 754 mmHg 71%
    22:00 +10°C° 0.5 mm 5 mps 754 mmHg 72%
    23:00 +9°C° 0.5 mm 5 mps 754 mmHg 72%

    22 October, Monday

    Time Temperature Precipitation Wind Pressure Humidity
    00:00 +9°C° 0.5 mm 5 mps 754 mmHg 73%
    01:00 +9°C° 0.2 mm 5 mps 754 mmHg 73%
    02:00 +9°C° 0.2 mm 5 mps 755 mmHg 73%
    03:00 +8°C° 0.2 mm 5 mps 755 mmHg 74%
    04:00 +8°C° 0.1 mm 5 mps 755 mmHg 74%
    05:00 +8°C° 0.1 mm 5 mps 755 mmHg 75%
    06:00 +8°C° 0.1 mm 5 mps 755 mmHg 75%
    07:00 +8°C° 0 mm 5 mps 755 mmHg 74%
    08:00 +8°C° 0 mm 5 mps 755 mmHg 73%
    09:00 +8°C° 0 mm 5 mps 755 mmHg 72%
    10:00 +9°C° 0 mm 5 mps 755 mmHg 69%
    11:00 +10°C° 0 mm 5 mps 755 mmHg 66%
    12:00 +10°C° 0 mm 5 mps 756 mmHg 63%
    13:00 +12°C° 0 mm 5 mps 755 mmHg 62%
    14:00 +12°C° 0 mm 5 mps 755 mmHg 61%
    15:00 +12°C° 0 mm 5 mps 755 mmHg 59%
    16:00 +12°C° 0.1 mm 5 mps 755 mmHg 61%
    17:00 +10°C° 0.1 mm 5 mps 755 mmHg 62%
    18:00 +11°C° 0.1 mm 4 mps 755 mmHg 63%
    19:00 +10°C° 0 mm 5 mps 755 mmHg 63%
    20:00 +10°C° 0 mm 5 mps 755 mmHg 62%
    21:00 +10°C° 0 mm 5 mps 755 mmHg 61%
    22:00 +9°C° 0 mm 5 mps 755 mmHg 61%
    23:00 +9°C° 0 mm 5 mps 755 mmHg 62%

    23 October, Tuesday

    Time Temperature Precipitation Wind Pressure Humidity
    00:00 +10°C° 0 mm 4 mps 755 mmHg 62%
    01:00 +10°C° 0 mm 4 mps 754 mmHg 63%
    02:00 +8°C° 0 mm 4 mps 754 mmHg 64%
    03:00 +8°C° 0 mm 4 mps 754 mmHg 65%
    04:00 +8°C° 0 mm 4 mps 754 mmHg 65%
    05:00 +8°C° 0 mm 5 mps 753 mmHg 66%
    06:00 +7°C° 0 mm 5 mps 753 mmHg 67%
    07:00 +8°C° 0 mm 5 mps 753 mmHg 66%
    08:00 +8°C° 0 mm 5 mps 753 mmHg 65%
    09:00 +8°C° 0 mm 5 mps 753 mmHg 64%
    10:00 +9°C° 0.1 mm 5 mps 753 mmHg 62%
    11:00 +10°C° 0.1 mm 6 mps 752 mmHg 60%
    12:00 +10°C° 0.1 mm 6 mps 752 mmHg 59%
    13:00 +11°C° 0 mm 6 mps 752 mmHg 55%
    14:00 +13°C° 0 mm 6 mps 751 mmHg 52%
    15:00 +14°C° 0 mm 6 mps 751 mmHg 49%
    16:00 +13°C° 0 mm 6 mps 750 mmHg 51%
    17:00 +12°C° 0 mm 5 mps 750 mmHg 54%
    18:00 +10°C° 0 mm 5 mps 750 mmHg 56%
    19:00 +10°C° 0 mm 5 mps 749 mmHg 56%
    20:00 +10°C° 0 mm 5 mps 749 mmHg 56%
    21:00 +10°C° 0 mm 5 mps 749 mmHg 56%
    22:00 +11°C° 0 mm 4 mps 748 mmHg 58%
    23:00 +11°C° 0 mm 4 mps 748 mmHg 60%

    24 October, Wednesday

    Time Temperature Precipitation Wind Pressure Humidity
    00:00 +10°C° 0 mm 4 mps 748 mmHg 61%
    01:00 +10°C° 0.3 mm 4 mps 747 mmHg 65%
    02:00 +10°C° 0.3 mm 4 mps 747 mmHg 68%
    03:00 +10°C° 0.3 mm 4 mps 747 mmHg 71%
    04:00 +10°C° 0.8 mm 4 mps 746 mmHg 77%
    05:00 +10°C° 0.8 mm 3 mps 746 mmHg 83%
    06:00 +10°C° 0.8 mm 3 mps 746 mmHg 89%
    07:00 +11°C° 0.1 mm 4 mps 745 mmHg 86%
    08:00 +11°C° 0.1 mm 4 mps 745 mmHg 83%
    09:00 +12°C° 0.1 mm 5 mps 745 mmHg 80%
    10:00 +13°C° 0 mm 4 mps 745 mmHg 76%
    11:00 +13°C° 0 mm 4 mps 744 mmHg 73%
    12:00 +14°C° 0 mm 4 mps 744 mmHg 70%
    13:00 +16°C° 0.1 mm 3 mps 743 mmHg 70%
    14:00 +16°C° 0.1 mm 3 mps 743 mmHg 70%
    15:00 +16°C° 0.1 mm 3 mps 742 mmHg 70%
    16:00 +15°C° 0.3 mm 2 mps 742 mmHg 73%
    17:00 +15°C° 0.3 mm 2 mps 741 mmHg 75%
    18:00 +14°C° 0.3 mm 2 mps 741 mmHg 78%
    19:00 +14°C° 2 mm 2 mps 740 mmHg 81%
    20:00 +14°C° 2 mm 2 mps 740 mmHg 84%
    21:00 +13°C° 2 mm 3 mps 739 mmHg 87%
    22:00 +13°C° 1.3 mm 3 mps 739 mmHg 85%
    23:00 +13°C° 1.3 mm 4 mps 738 mmHg 82%
    Show more